Tracking 31027 objects as of 19-Jul-2025
HD Live streaming from Space Station
objects crossing your sky now

COSMOS 795

Track COSMOS 795 now!
10-day predictions
COSMOS 795 is classified as:


NORAD ID: 8611
Int'l Code: 1976-008E
Perigee: 1,473.8 km
Apogee: 1,504.8 km
Inclination: 74.1 °
Period: 115.6 minutes
Semi major axis: 7860 km
RCS: 0.6779 m2 (medium)
Launch date: January 28, 1976
Source: Commonwealth of Independent States (former USSR) (CIS)
Launch site: PLESETSK MISSILE AND SPACE COMPLEX (PKMTR)
Your satellite tracking list
Your tracking list is empty




NASA's NSSDC Master Catalog

Two Line Element Set (TLE):
1 08611U 76008E   25199.59980058 -.00000021  00000-0 -41224-4 0  9999
2 08611  74.0552 274.1176 0019771 186.5292 173.5502 12.45788028249684
Source of the keplerian elements: AFSPC